• In Latvia
  • List of Countries
  • For 7 days
  • Water Temperature
  • Satellite Maps
  • Weather Map
  • Weather Widgets
  • user-avatar
    Login

    Hourly Weather Kalgoorlie

    Today, 21 September, Thursday

    Time Temperature Precipitation Wind Pressure Humidity
    00:00 +19°C° 0 mm 3 mps 728 mmHg 58%
    01:00 +18°C° 0 mm 3 mps 728 mmHg 62%
    02:00 +17°C° 0 mm 3 mps 727 mmHg 65%
    03:00 +17°C° 0 mm 3 mps 727 mmHg 67%
    04:00 +17°C° 0 mm 2 mps 727 mmHg 69%
    05:00 +16°C° 0 mm 2 mps 727 mmHg 70%
    06:00 +18°C° 0 mm 3 mps 727 mmHg 64%
    07:00 +19°C° 0 mm 4 mps 727 mmHg 58%
    08:00 +21°C° 0 mm 7 mps 726 mmHg 49%
    09:00 +23°C° 0 mm 8 mps 725 mmHg 42%
    10:00 +26°C° 0 mm 9 mps 725 mmHg 36%
    11:00 +28°C° 0 mm 10 mps 724 mmHg 29%
    12:00 +29°C° 0 mm 11 mps 724 mmHg 26%
    13:00 +31°C° 0 mm 12 mps 723 mmHg 23%
    14:00 +33°C° 0 mm 13 mps 722 mmHg 19%
    15:00 +32°C° 0 mm 13 mps 722 mmHg 20%
    16:00 +32°C° 0 mm 13 mps 722 mmHg 20%
    17:00 +31°C° 0 mm 13 mps 722 mmHg 20%
    18:00 +28°C° 0 mm 11 mps 722 mmHg 25%
    19:00 +27°C° 0 mm 10 mps 722 mmHg 30%
    20:00 +24°C° 0 mm 8 mps 723 mmHg 35%
    21:00 +23°C° 0 mm 8 mps 723 mmHg 44%
    22:00 +21°C° 0 mm 8 mps 723 mmHg 53%
    23:00 +20°C° 0 mm 8 mps 723 mmHg 61%

    Tomorrow, 22 September, Friday

    Time Temperature Precipitation Wind Pressure Humidity
    00:00 +18°C° 0 mm 7 mps 723 mmHg 64%
    01:00 +18°C° 0 mm 7 mps 723 mmHg 67%
    02:00 +17°C° 0 mm 7 mps 723 mmHg 69%
    03:00 +17°C° 0 mm 6 mps 723 mmHg 70%
    04:00 +17°C° 0 mm 6 mps 723 mmHg 71%
    05:00 +16°C° 0 mm 6 mps 723 mmHg 72%
    06:00 +17°C° 0 mm 7 mps 723 mmHg 68%
    07:00 +17°C° 0 mm 9 mps 723 mmHg 63%
    08:00 +18°C° 0 mm 10 mps 723 mmHg 58%
    09:00 +18°C° 0 mm 11 mps 722 mmHg 55%
    10:00 +18°C° 0 mm 12 mps 722 mmHg 53%
    11:00 +19°C° 0 mm 13 mps 722 mmHg 50%
    12:00 +19°C° 0 mm 13 mps 721 mmHg 50%
    13:00 +19°C° 0 mm 14 mps 721 mmHg 49%
    14:00 +19°C° 0 mm 15 mps 720 mmHg 49%
    15:00 +18°C° 0.2 mm 15 mps 721 mmHg 52%
    16:00 +17°C° 0.2 mm 14 mps 721 mmHg 56%
    17:00 +15°C° 0.2 mm 14 mps 722 mmHg 59%
    18:00 +15°C° 0 mm 12 mps 722 mmHg 57%
    19:00 +14°C° 0 mm 11 mps 723 mmHg 55%
    20:00 +15°C° 0 mm 9 mps 724 mmHg 54%
    21:00 +13°C° 0 mm 9 mps 724 mmHg 57%
    22:00 +12°C° 0 mm 9 mps 724 mmHg 60%
    23:00 +12°C° 0 mm 8 mps 724 mmHg 63%

    Day after tomorrow, 23 September, Saturday

    Time Temperature Precipitation Wind Pressure Humidity
    00:00 +11°C° 0 mm 8 mps 724 mmHg 67%
    01:00 +11°C° 0 mm 8 mps 724 mmHg 70%
    02:00 +10°C° 0 mm 7 mps 725 mmHg 73%
    03:00 +10°C° 0 mm 7 mps 725 mmHg 74%
    04:00 +10°C° 0 mm 7 mps 725 mmHg 75%
    05:00 +10°C° 0 mm 7 mps 725 mmHg 76%
    06:00 +10°C° 0 mm 8 mps 726 mmHg 72%
    07:00 +11°C° 0 mm 8 mps 726 mmHg 68%
    08:00 +11°C° 0 mm 9 mps 727 mmHg 63%
    09:00 +12°C° 0 mm 8 mps 727 mmHg 60%
    10:00 +12°C° 0 mm 8 mps 727 mmHg 57%
    11:00 +12°C° 0 mm 8 mps 727 mmHg 53%
    12:00 +13°C° 0 mm 8 mps 726 mmHg 50%
    13:00 +15°C° 0 mm 8 mps 726 mmHg 46%
    14:00 +16°C° 0 mm 8 mps 726 mmHg 42%
    15:00 +16°C° 0 mm 8 mps 726 mmHg 42%
    16:00 +16°C° 0 mm 8 mps 726 mmHg 41%
    17:00 +16°C° 0 mm 7 mps 726 mmHg 41%
    18:00 +15°C° 0 mm 6 mps 726 mmHg 44%
    19:00 +14°C° 0 mm 4 mps 726 mmHg 47%
    20:00 +13°C° 0 mm 3 mps 727 mmHg 51%
    21:00 +12°C° 0 mm 3 mps 727 mmHg 52%
    22:00 +12°C° 0 mm 3 mps 726 mmHg 54%
    23:00 +11°C° 0 mm 3 mps 726 mmHg 55%

    24 September, Sunday

    Time Temperature Precipitation Wind Pressure Humidity
    00:00 +11°C° 0 mm 3 mps 726 mmHg 57%
    01:00 +11°C° 0 mm 3 mps 725 mmHg 59%
    02:00 +10°C° 0 mm 3 mps 725 mmHg 61%
    03:00 +10°C° 0 mm 3 mps 725 mmHg 65%
    04:00 +10°C° 0 mm 3 mps 725 mmHg 70%
    05:00 +9°C° 0 mm 2 mps 725 mmHg 75%
    06:00 +10°C° 0 mm 2 mps 725 mmHg 72%
    07:00 +11°C° 0 mm 3 mps 725 mmHg 70%
    08:00 +12°C° 0 mm 3 mps 726 mmHg 67%
    09:00 +13°C° 0.1 mm 3 mps 726 mmHg 61%
    10:00 +14°C° 0.1 mm 4 mps 725 mmHg 56%
    11:00 +17°C° 0.1 mm 4 mps 725 mmHg 50%
    12:00 +17°C° 0.3 mm 4 mps 724 mmHg 49%
    13:00 +16°C° 0.3 mm 5 mps 724 mmHg 47%
    14:00 +17°C° 0.3 mm 5 mps 723 mmHg 46%
    15:00 +16°C° 0.4 mm 5 mps 723 mmHg 48%
    16:00 +16°C° 0.4 mm 5 mps 723 mmHg 51%
    17:00 +16°C° 0.4 mm 5 mps 723 mmHg 54%
    18:00 +15°C° 0.3 mm 4 mps 724 mmHg 58%
    19:00 +14°C° 0.3 mm 3 mps 724 mmHg 62%
    20:00 +15°C° 0.3 mm 2 mps 724 mmHg 66%
    21:00 +14°C° 0.2 mm 2 mps 724 mmHg 69%
    22:00 +14°C° 0.2 mm 2 mps 724 mmHg 72%
    23:00 +14°C° 0.2 mm 1 mps 724 mmHg 75%

    25 September, Monday

    Time Temperature Precipitation Wind Pressure Humidity
    00:00 +13°C° 0.1 mm 1 mps 723 mmHg 76%
    01:00 +13°C° 0.1 mm 2 mps 723 mmHg 78%
    02:00 +13°C° 0.1 mm 2 mps 723 mmHg 79%
    03:00 +12°C° 0.1 mm 2 mps 723 mmHg 79%
    04:00 +12°C° 0.1 mm 2 mps 723 mmHg 79%
    05:00 +11°C° 0.1 mm 3 mps 723 mmHg 79%
    06:00 +12°C° 0.2 mm 3 mps 724 mmHg 74%
    07:00 +13°C° 0.2 mm 4 mps 724 mmHg 68%
    08:00 +14°C° 0.2 mm 4 mps 724 mmHg 63%
    09:00 +17°C° 0.4 mm 4 mps 724 mmHg 56%
    10:00 +17°C° 0.4 mm 5 mps 724 mmHg 49%
    11:00 +19°C° 0.4 mm 6 mps 724 mmHg 42%
    12:00 +20°C° 0.1 mm 6 mps 723 mmHg 38%
    13:00 +20°C° 0.1 mm 6 mps 722 mmHg 35%
    14:00 +20°C° 0.1 mm 6 mps 722 mmHg 32%
    15:00 +20°C° 0.1 mm 5 mps 722 mmHg 34%
    16:00 +19°C° 0.1 mm 4 mps 722 mmHg 36%
    17:00 +19°C° 0.1 mm 3 mps 722 mmHg 39%
    18:00 +17°C° 0.9 mm 3 mps 723 mmHg 48%
    19:00 +16°C° 0.9 mm 3 mps 723 mmHg 58%
    20:00 +13°C° 0.9 mm 3 mps 723 mmHg 68%
    21:00 +13°C° 0.6 mm 3 mps 723 mmHg 71%
    22:00 +13°C° 0.6 mm 3 mps 723 mmHg 74%
    23:00 +13°C° 0.6 mm 3 mps 723 mmHg 77%

    26 September, Tuesday

    Time Temperature Precipitation Wind Pressure Humidity
    00:00 +12°C° 0.2 mm 3 mps 723 mmHg 78%
    01:00 +13°C° 0.2 mm 2 mps 723 mmHg 80%
    02:00 +13°C° 0.2 mm 2 mps 723 mmHg 82%
    03:00 +13°C° 0.1 mm 2 mps 723 mmHg 82%
    04:00 +12°C° 0.1 mm 2 mps 723 mmHg 82%
    05:00 +12°C° 0.1 mm 2 mps 724 mmHg 82%
    06:00 +12°C° 0.1 mm 2 mps 724 mmHg 78%
    07:00 +13°C° 0.1 mm 2 mps 724 mmHg 74%
    08:00 +13°C° 0.1 mm 2 mps 725 mmHg 70%
    09:00 +14°C° 0 mm 3 mps 725 mmHg 64%
    10:00 +16°C° 0 mm 3 mps 725 mmHg 57%
    11:00 +17°C° 0 mm 3 mps 725 mmHg 50%
    12:00 +18°C° 0.1 mm 3 mps 724 mmHg 46%
    13:00 +19°C° 0.1 mm 3 mps 724 mmHg 43%
    14:00 +19°C° 0.1 mm 4 mps 724 mmHg 40%
    15:00 +19°C° 0.1 mm 4 mps 724 mmHg 40%
    16:00 +19°C° 0.1 mm 4 mps 724 mmHg 41%
    17:00 +18°C° 0.1 mm 4 mps 724 mmHg 42%
    18:00 +18°C° 0.2 mm 4 mps 725 mmHg 46%
    19:00 +17°C° 0.2 mm 4 mps 725 mmHg 51%
    20:00 +16°C° 0.2 mm 3 mps 726 mmHg 55%
    21:00 +14°C° 0.1 mm 3 mps 726 mmHg 60%
    22:00 +13°C° 0.1 mm 3 mps 726 mmHg 65%
    23:00 +13°C° 0.1 mm 4 mps 726 mmHg 69%
    Show more